www.pogodaiklimat.ru

Погода и климат >> Архив погоды >> Россия >> Ханты-Мансийский АО >> Нижневартовск


АРХИВ ПОГОДЫ в Нижневартовске

Время (UTC), дата Ветер
(напр.,м/с)
 
Видим.   Явления Облачность Т
(С)
Тd
(С)
f
(%)
Тe
(С)
Тes
(С)
Комфортность P
(гПа)
Po
(гПа)
Тmin
(С)
Tmax
(С)
R
(мм)
R24
(мм)
S
(см)
00 9.12 Ю 3 20 км 6/0
[Ci fib]
-14.6 -15.9 90 -21 -21 по сезону 1029.3 1021.9
03 9.12 Ю 4 20 км 10/0
[Ac trans Ci sp]
-13.0 -17.3 70 -20 -20 по сезону 1028.6 1021.2 -17.5 34
06 9.12 ЮЗ 5 50 км 10/0
[Ac As]
-11.9 -17.1 65 -20 -20 по сезону 1028.2 1020.9
09 9.12 ЮЗ 5 50 км 10/0
[Ac trans Ci sp]
-9.6 -18.1 50 -17 -17 по сезону 1027.5 1020.2
12 9.12 ЮЗ 5 20 км 10/0
[As op]
-9.4 -17.7 51 -17 -17 по сезону 1027.3 1020.0
15 9.12 ЮЗ 6 20 км 10/0
[As op]
-10.6 -17.9 55 -19 -19 по сезону 1027.3 1020.0 -8.4
18 9.12 ЮЗ 5 20 км 5/0
[Ac trans]
-11.6 -17.8 60 -20 -20 по сезону 1027.3 1020.0
21 9.12 ЮЗ 4 20 км ясно -14.8 -19.1 70 -23 -23 по сезону 1027.6 1020.2
00 10.12 ЮЗ 4 20 км 4/0
[Ac trans]
-14.5 -18.8 70 -22 -22 по сезону 1027.1 1019.7
03 10.12 ЮЗ 3 20 км 8/0
[Ac trans]
-12.7 -17.0 70 -19 -19 по сезону 1027.0 1019.6 -15.8 34
06 10.12 ЮЗ 2 50 км 10/10 600 м
[Sc]
-12.5 -16.8 70 -17 -17 по сезону 1027.3 1020.0
09 10.12 З 3 50 км 10/10 330 м
[St]
-11.4 -14.9 75 -17 -17 по сезону 1027.1 1019.8
12 10.12 ЮЗ 2 20 км 10/10 330 м
[St]
-10.8 -13.6 80 -15 -15 тепло 1028.0 1020.7
15 10.12 ЮЗ 3 20 км 10/10 570 м
[Sc]
-10.5 -13.3 80 -16 -16 тепло 1028.2 1020.9 -10.5
18 10.12 ЮЗ 3 20 км 10/10 300 м
[St]
-10.4 -12.4 85 -16 -16 тепло 1028.5 1021.2
21 10.12 Ю 2 9000 м снежные кристаллы 10/8 150 м
[Frnb As op]
-10.3 -10.9 95 -15 -15 тепло 1028.4 1021.1
00 11.12 Ю 2 500 м переохл. туман {снег} ?/? -10.1 -10.7 95 -15 -15 тепло 1028.0 1020.7
03 11.12 ЮЗ 2 2600 м дымка {туман} 10/10 90 м
[St]
-10.1 -10.7 95 -15 -15 тепло 1027.9 1020.6 -10.5 0.0 35
06 11.12 ЮЗ 2 50 км {туман} 9/0
[Ac trans]
-12.9 -13.5 95 -18 -17 по сезону 1028.2 1020.8 -13.0
09 11.12 Ю 2 50 км 8/0
[Ac trans]
-12.6 -13.9 90 -17 -17 по сезону 1027.8 1020.5
12 11.12 Ю 2 20 км ясно -14.2 -15.5 90 -19 -19 по сезону 1027.4 1020.0
15 11.12 Ю 2 20 км ясно -15.4 -16.7 90 -20 -20 по сезону 1026.7 1019.3 -10.1
18 11.12 Ю 3 20 км ясно -16.4 -18.3 85 -23 -23 по сезону 1025.8 1018.4
21 11.12 Ю 2 20 км 4/0
[Ac trans]
-17.0 -18.9 85 -22 -22 по сезону 1024.6 1017.2
00 12.12 Ю 3 20 км 9/0
[Ac trans]
-16.6 -18.5 85 -24 -24 по сезону 1023.2 1015.8
03 12.12 ЮЗ 3 20 км 10/10 180 м
[St]
-16.1 -18.7 80 -23 -23 по сезону 1022.7 1015.3 -17.2 35
06 12.12 З 2 10 км снежные кристаллы 10/0
[As trans]
-15.3 -17.2 85 -20 -20 по сезону 1022.1 1014.8
09 12.12 З 2 5000 м слабый снег 10/6 270 м
[Frnb As op]
-14.0 -16.7 80 -19 -19 по сезону 1022.2 1014.9
12 12.12 штиль 0 50 км слабый снег ?/? -14.4 -16.4 85 -14 -14 тепло 1022.5 1015.1
15 12.12 ЮЗ 3 20 км {снег} 9/9 240 м
[St]
-13.7 -15.0 90 -20 -20 по сезону 1022.6 1015.2 -13.7 0.2
18 12.12 ЮЗ 2 20 км в посл. час снег 10/8 210 м
[Frnb As op]
-12.6 -13.9 90 -17 -17 по сезону 1022.3 1015.0
21 12.12 ЮЗ 3 20 км 10/10 240 м
[St]
-11.7 -13.0 90 -18 -18 по сезону 1021.5 1014.3
00 13.12 ЮЗ 3 7000 м дымка 10/10 150 м
[St]
-10.4 -11.7 90 -16 -16 тепло 1021.0 1013.8
03 13.12 ЮЗ 4 7000 м дымка 10/10 120 м
[St]
-9.6 -10.4 94 -17 -17 по сезону 1020.5 1013.3 -13.7 0.0 35
06 13.12 ЮЗ 3 50 км 10/10 240 м
[St]
-8.6 -9.3 95 -15 -15 тепло 1019.5 1012.3
09 13.12 Ю 4 4400 м слабый снег 10/8 180 м
[Frnb As op]
-7.5 -8.1 95 -14 -14 тепло 1017.3 1010.3
12 13.12 ЮЗ 4 3900 м слабый ливневой снег 10/8 750 м
[Cb calv As op]
-7.0 -7.5 96 -14 -14 тепло 1016.0 1009.0
15 13.12 З 3 4900 м слабый снег {ливн. осадки} 10/0 420 м
[As op]
-7.4 -8.3 93 -13 -13 тепло 1015.1 1008.1 -7.0 2
18 13.12 З 3 20 км {ливн. осадки, снег} 10/0
[As op]
-9.0 -10.1 92 -15 -15 тепло 1015.6 1008.4
21 13.12 СЗ 3 6000 м снежные кристаллы 10/10 360 м
[Frnb Ns]
-7.4 -8.7 90 -13 -13 тепло 1016.0 1009.0
00 14.12 З 2 20 км {снег} ясно -9.0 -10.6 88 -14 -14 тепло 1018.3 1011.1
03 14.12 ЮЗ 2 20 км 5/0
[Ac trans]
-11.2 -11.8 95 -16 -16 по сезону 1018.4 1011.2 -11.6 0.3 36
06 14.12 ЮЗ 8-10
{11}
6000 м слабый ливневой снег {метель} 10/6 840 м
[Cb calv As op]
-8.4 -9.9 89 -18 -18 по сезону 1014.8 1007.6
09 14.12 З 5-10
{11}
50 км позёмок {ливн. осадки, метель} 10/10 500 м
[Sc]
-7.6 -10.2 82 -15 -15 тепло 1013.4 1006.4
12 14.12 З 5
{10}
20 км позёмок {ливн. осадки, метель} 10/10 360 м
[St]
-6.4 -8.0 88 -14 -14 тепло 1013.1 1006.1
15 14.12 З 5-10
{11}
20 км позёмок {метель} 10/10 240 м
[St]
-5.6 -7.0 90 -13 -13 тепло 1012.8 1005.8 -5.6 0.0
18 14.12 З 6
{11}
20 км позёмок {метель} 10/10 240 м
[St]
-5.3 -6.7 90 -13 -13 тепло 1012.7 1005.7
21 14.12 З 4 20 км позёмок {метель} 10/10 270 м
[St]
-5.7 -7.1 90 -12 -12 тепло 1012.3 1005.3
00 15.12 ЮЗ 3 2500 м слабый ливневой снег {метель} 10/8 630 м
[Cb calv As op]
-6.8 -8.0 91 -13 -13 тепло 1012.4 1005.4
03 15.12 З 3 1900 м ливневой снег 10/8 450 м
[Cb calv As op]
-7.4 -8.7 90 -13 -13 тепло 1012.5 1005.5 -7.4 5 38
06 15.12 З 3 50 км в посл. час снег {ливн. осадки} 10/8 930 м
[Sc Ci sp]
-7.2 -8.5 90 -13 -13 тепло 1014.1 1007.1
09 15.12 З 2 50 км 10/10 150 м
[St]
-6.5 -8.1 88 -11 -11 тепло 1016.2 1009.2
12 15.12 З 1 1400 м переохл. морось (гололёд) [диам. гололёда 1 мм] 10/10 120 м
[St]
-5.9 -5.9 100 -8 -8 тепло 1017.9 1010.9
15 15.12 ЮЗ 3 20 км {морось} 10/10 90 м
[St]
-5.5 -5.5 100 -11 -11 тепло 1018.2 1011.2 +5.5 1
18 15.12 ЮЗ 2 7000 м дымка {морось} 10/10 90 м
[St]
-5.7 -5.7 100 -10 -10 тепло 1017.9 1010.9

 

Местоположение метеостанции Нижневартовск (Ханты-Мансийский АО, Россия): широта 60.92 долгота 76.60 высота над уровнем моря 55 м.

В архиве по умолчанию представлена погода в Нижневартовске за последнюю неделю. Архивные данные за месяц целиком и за предыдущие месяцы, начиная с января 2011 года, Вы можете получить, выбрав интересующий диапазон дат из раскрывающегося списка и нажав кнопку "Ввод!".


*Определитесь, кто Вы:
робот инопланетянин человек

Внимание! Время в таблицах - всемирное. Для получения местного времени необходимо прибавить поправку, которая в Нижневартовске равна 5 ч.

Смотрите также архив погоды в соседних городах и на ближайших метеорологических станциях:

Погода в Александровском (Томская область, Россия) (88 км)
Погода в Ваховске (Ханты-Мансийский АО, Россия) (117 км)
Погода в Радужном (Ханты-Мансийский АО, Россия) (142 км)
Погода в Угуте (Ханты-Мансийский АО, Россия) (148 км)
Погода в Сургуте (Ханты-Мансийский АО, Россия) (177 км)
Погода в Когалыме (Ханты-Мансийский АО, Россия) (182 км)
Погода в Ларьяке (Ханты-Мансийский АО, Россия) (198 км)
Погода в Среднем Васюгане (Томская область, Россия) (210 км)
Погода в Нефтеюганске (Ханты-Мансийский АО, Россия) (215 км)
Погода в Прохоркино (Томская область, Россия) (222 км)

Пояснения к столбцам:

Ветер - указаны скорость ветра в м/с - средняя за 10 мин, порывы в срок и между сроками (в фигурных скобках) и направление, откуда дует ветер: С - северный, СВ - северо-восточный, В - восточный, ЮВ - юго-восточный, Ю - южный, ЮЗ - юго-западный, З - западный, СЗ - северо-западный.
Видимость - горизонтальная дальность видимости в метрах или километрах. При видимости от 1 до 10 км при отсутствии осадков обычно наблюдается дымка, при ухудшении видимости до 1 км и менее - туман. В сухую погоду видимость может ухудшаться дымом, пылью или мглою.
Явления - указаны атмосферные явления, наблюдавшиеся в срок или в последний час перед сроком; фигурными скобками обозначены явления, наблюдавшиеся между сроками (за 1-3 часа до срока); квадратными скобками обозначены град или гололедные отложения с указанием их диаметра в мм.
Облачность - указаны через наклонную черту общая и нижняя облачность в баллах и высота нижней границы облаков в метрах; квадратными скобками обозначены формы облаков: Ci - перистые, Cs - перисто-слоистые, Cc - перисто-кучевые, Ac - высококучевые, As - высокослоистые, Sc - слоисто-кучевые, Ns - слоисто-дождевые, Cu - кучевые, Cb - кучево-дождевые. Подробнее классификацию облаков см. в Атласе облаков (PDF).
T - Температура воздуха - температура, измеренная на высоте 2 м над землей.
Td - Температура точки росы - температура, при понижении до которой содержащийся в воздухе водяной пар достигнет насыщения.
f - Относительная влажность воздуха - влажноcть воздуха, измеренная на высоте 2 м над землей.
Te - Эффективная температура - температура, которую ощущает одетый по сезону человек в тени. Характеристика душности погоды. При расчете учитывается влияние влажности воздуха и скорости ветра на теплоощущения человека.
Tes - Эффективная температура на солнце - температура, которую ощущает человек, с поправкой на солнечный нагрев. Характеристика знойности погоды. Зависит от высоты солнца над горизонтом, облачности и скорости ветра. Ночью, в пасмурную погоду, а также при ветре 12 м/с и более поправка равна нулю.
P - Атмосферное давление - приведенное к уровню моря атмосферное давление.
Po - Атмосферное давление - измеренное на уровне метеостанции атмосферное давление.
Tmin - Минимальная температура - минимум температуры воздуха на высоте 2 м над землей.
Tmax - Максимальная температура - максимум температуры воздуха на высоте 2 м над землей.
R - Количество осадков - Количество выпавших осадков за период времени, мм. При наведении курсора мыши на число - период времени, за который выпало указанное количество осадков.
R24 - Количество осадков - Количество выпавших осадков за 24 часа, мм.
S - Снежный покров - Высота снежного покрова, см. При наведении курсора мыши на число - состояние снежного покрова и степень покрытия местности в баллах.